Regional Weather Roundup
Issued by NWS Burlington, VT

Current Version | Previous Version | Text Only | Print | Product List | Glossary On
Versions: 1 2 3 4 5 6 7 8 9 10 11 12 13 14 15 16 17 18 19 20 21 22 23 24 25 26 27 28 29 30 31 32 33 34 35 36 37 38 39 40 41 42 43 44 45 46 47 48 49 50
000
ASUS41 KBTV 200630
RWRBTV
VERMONT REGIONAL WEATHER ROUNDUP
NATIONAL WEATHER SERVICE BURLINGTON VT
100 AM EST SAT DEC 20 2014

NOTE: "FAIR" INDICATES FEW OR NO CLOUDS BELOW 12,000 FEET WITH NO
SIGNIFICANT WEATHER AND/OR OBSTRUCTIONS TO VISIBILITY.

* THESE REPORTS ARE NOT UNDER NWS QUALITY CONTROL AND/OR DO NOT
  REPORT WEATHER SUCH AS PRECIPITATION AND FOG.

VTZ001>019-200700-
_____VERMONT_____


CITY           SKY/WX    TMP DP  RH WIND       PRES   REMARKS
BURLINGTON     FAIR      18  12  77 CALM      30.24S
6HR MIN TEMP:  17; 6HR MAX TEMP:  22;

MONTPELIER     FAIR      14  12  92 CALM      30.21R
6HR MIN TEMP:  14; 6HR MAX TEMP:  20;

MORRISVILLE    FAIR      12   7  80 CALM      30.22S
6HR MIN TEMP:  12; 6HR MAX TEMP:  20;

ST. JOHNSBURY*   N/A     17  13  84 MISG      30.19R
6HR MIN TEMP:  17; 6HR MAX TEMP:  24;

LYNDONVILLE*   FAIR      14  10  86 CALM      30.18R
6HR MIN TEMP:  14; 6HR MAX TEMP:  21;

MIDDLEBURY*    FAIR      15  15 100 CALM      30.22S
6HR MIN TEMP:  14; 6HR MAX TEMP:  25;

RUTLAND*       FAIR      18  12  79 CALM      30.19S
6HR MIN TEMP:  18; 6HR MAX TEMP:  25;

SPRINGFIELD    FAIR      22  15  75 N9        30.20R
6HR MIN TEMP:  22; 6HR MAX TEMP:  26;

HIGHGATE*      FAIR      10   8  91 CALM      30.26R
6HR MIN TEMP:   8; 6HR MAX TEMP:  18;

NEWPORT*       FAIR       7   4  89 SW3       30.20R
6HR MIN TEMP:   7; 6HR MAX TEMP:  16;

BENNINGTON     CLOUDY    23  16  74 NW6       30.17S
6HR MIN TEMP:  23; 6HR MAX TEMP:  27;

GALLUP MILLS*    N/A      9 N/A N/A MISG        N/A
UNION VILLAGE*   N/A     19 N/A N/A MISG        N/A
MT. MANSFIELD*   N/A     18 N/A N/A CALM        N/A

_____LAKE CHAMPLAIN_____


CITY           SKY/WX    TMP DP  RH WIND       PRES   REMARKS

$$

NYZ007-026>031-035-052-083-200700-
_____NORTHERN NEW YORK_____


CITY           SKY/WX    TMP DP  RH WIND       PRES   REMARKS
PLATTSBURGH    FAIR      12   9  87 CALM      30.25R
6HR MIN TEMP:  11; 6HR MAX TEMP:  19;

SARANAC LAKE   CLOUDY    13  52 100 CALM      30.13S
6HR MIN TEMP:  13; 6HR MAX TEMP:  16;

MASSENA        FAIR       8   4  83 SW5       30.28S
6HR MIN TEMP:   6; 6HR MAX TEMP:  15;

OGDENSBURG*    CLEAR      9   7  92 CALM      30.27R
POTSDAM*       CLEAR     12  12 100 SW3       30.26R
STARK FALLS*     N/A     14 N/A N/A CALM        N/A
WATERTOWN      FAIR      16   9  74 CALM      30.26F
6HR MIN TEMP:  15; 6HR MAX TEMP:  20;

FT DRUM        FAIR      11   8  86 S2        30.23S
6HR MIN TEMP:  11; 6HR MAX TEMP:  19;

ALBANY         CLOUDY    26  18  71 NW10      30.23R WCI  16
6HR MIN TEMP:  26; 6HR MAX TEMP:  29;

GLENS FALLS    CLOUDY    23  16  74 E6        30.23R
6HR MIN TEMP:  23; 6HR MAX TEMP:  27;


$$
NHZ002-005-011-200700-
_____NEW HAMPSHIRE_____


CITY           SKY/WX    TMP DP  RH WIND       PRES   REMARKS
LEBANON        CLOUDY    23  16  74 NW6       30.20R
6HR MIN TEMP:  23; 6HR MAX TEMP:  26;

KEENE          FAIR      23  18  80 N9        30.18R
6HR MIN TEMP:  25; 6HR MAX TEMP:  30;

MT WASHINGTON  PTCLDY    23  16  74 NE18        N/A  WCI   9
6HR MIN TEMP:  19; 6HR MAX TEMP:  23;

PLYMOUTH       FAIR      23  20  90 W8        30.18R
6HR MIN TEMP:  23; 6HR MAX TEMP:  26;

WHITEFIELD     CLOUDY    19  14  81 N5        30.16R
6HR MIN TEMP:  19; 6HR MAX TEMP:  23;


$$

_____REGIONAL QUEBEC LOCATIONS_____


CITY           SKY/WX    TMP DP  RH WIND       PRES   REMARKS
MONTREAL       PTCLDY    12   9  85 SW5       30.27R
QUEBEC CITY    CLEAR      7   3  85 N2        30.24R
SHERBROOKE     CLEAR      5   1  85 E6        30.20S

_____REGIONAL ONTARIO LOCATIONS_____


CITY           SKY/WX    TMP DP  RH WIND       PRES   REMARKS
OTTAWA         CLEAR      9   5  85 W6        30.26R

______KEY______
VSB  - VISIBILITY IN MILES
WCI  - WIND CHILL INDEX
HX   - HEAT INDEX
$$
NNNN



USA.gov is the U.S. government's official web portal to all federal, state and local government web resources and services.